カタログに戻る

GAOFEN DUOMO

GFDM

運用中科学SSO
NORAD 45856·PAYLOAD·🇨🇳 China

打ち上げ Jul 3, 2020 から Taiyuan Satellite Launch Center

Loading…

次のパス (今後24時間)

TLE

最新Source: Space-Track

元期: Sep 14, 2026, 15:23 UTC

1 45856U 20042A   26257.64118292  .00000176  00000-0  32007-4 0  9991
2 45856  97.7656 314.2262 0011773 139.8195 220.3888 14.76861340334219

AllMySatでGAOFEN DUOMOをリアルタイム追跡

Download on the App Store